This is the latest recevied weather packets stored in our database for station/object CX5ACA-13. If no packets are shown the sender has not sent any weather packets the latest 10 day(s).
| Time | Temp. | Humidity | Pressure | Rain* | Wind** | Luminosity | Snow |
|---|---|---|---|---|---|---|---|
| 1777847281 | 14.44° C | 66% | 1018.1 hPa | 0 mm | - | 0 W/m² | - |
| 1777846979 | 14.44° C | 66% | 1018.3 hPa | 0 mm | - | 0 W/m² | - |
| 1777846677 | 14.44° C | 66% | 1018.3 hPa | 0 mm | - | 0 W/m² | - |
| 1777846375 | 14.44° C | 65% | 1018.4 hPa | 0 mm | - | 0 W/m² | - |
| 1777846071 | 14.44° C | 64% | 1018.5 hPa | 0 mm | - | 0 W/m² | - |
| 1777845768 | 14.44° C | 64% | 1018.4 hPa | 0 mm | - | 0 W/m² | - |
| 1777845465 | 15° C | 64% | 1018.3 hPa | 0 mm | - | 0 W/m² | - |
| 1777845162 | 15° C | 63% | 1018.2 hPa | 0 mm | - | 0 W/m² | - |
| 1777844860 | 15° C | 63% | 1018.3 hPa | 0 mm | - | 0 W/m² | - |
| 1777844556 | 15° C | 62% | 1018.3 hPa | 0 mm | - | 0 W/m² | - |
| 1777844255 | 15° C | 62% | 1018.3 hPa | 0 mm | - | 0 W/m² | - |
| 1777843952 | 15.56° C | 61% | 1018.4 hPa | 0 mm | - | 0 W/m² | - |
| 1777843648 | 15.56° C | 61% | 1018.4 hPa | 0 mm | - | 0 W/m² | - |
| 1777843346 | 15.56° C | 60% | 1018.5 hPa | 0 mm | - | 0 W/m² | - |
| 1777843043 | 15.56° C | 60% | 1018.2 hPa | 0 mm | - | 0 W/m² | - |
| 1777842739 | 16.11° C | 59% | 1018.5 hPa | 0 mm | - | 1 W/m² | - |
| 1777842435 | 16.11° C | 58% | 1018.4 hPa | 0 mm | - | 2 W/m² | - |
| 1777842133 | 16.11° C | 57% | 1018.4 hPa | 0 mm | - | 4 W/m² | - |
| 1777841828 | 16.67° C | 56% | 1018.7 hPa | 0 mm | - | 6 W/m² | - |
| 1777841524 | 16.67° C | 55% | 1018.7 hPa | 0 mm | - | 10 W/m² | - |
| 1777841221 | 16.67° C | 55% | 1018.8 hPa | 0 mm | - | 13 W/m² | - |
| 1777840919 | 16.67° C | 53% | 1018.7 hPa | 0 mm | - | 17 W/m² | - |
| 1777840615 | 17.22° C | 52% | 1018.8 hPa | 0 mm | - | 22 W/m² | - |
| 1777840313 | 17.22° C | 51% | 1018.6 hPa | 0 mm | - | 25 W/m² | - |
| 1777840010 | 17.22° C | 50% | 1018.7 hPa | 0 mm | - | 27 W/m² | - |
* Rain latest hour (hover to see other rain measurements)
** Current wind speed in m/s (hover to see current wind gust speed)